SCP
0 0 0 0 0 0 0 0 0 0 0 0 -0 -0 -0 0 -0 -0 -0 0 0 0 0 0 0 0 0 0 0 0 0 0 0 0 0 0 0 0 0 0 0 0 0
0 0 0 0 0 0 0 0 0 0 0 0 -0 -0 0 0 -0 -0 -0 -0 0 0 0 0 0 0 0 0 0 0 0 0 0 0 0 0 0 0 0 0 0 0 0
0 0 0 0 0 0 0 0 0 0 0 0 0 0 0 0 0 0 0 0 0 0 0 0 0 0 0 0 0 0 0 0 0 0 0 0 0 0 0 0 0 0 0
0 0 0 0 0 0 0 0 0 0 0 0 0 0 0 0 0 0 0 0 0 0 0 0 0 0 0 0 0 0 0 0 0 0 0 0 0 0 0 0 0 0 0
0 0 0 0 0 0 0 0 0 0 0 0 0 0 0 0 0 0 0 0 0 0 0 0 0 0 0 0 0 0 0 0 0 0 0 0 0 0 0 0 0 0 0
0 0 0 0 0 0 0 0 0 0 0 0 0 0 0 0 0 0 0 0 0 0 0 0 0 0 0 0 0 0 0 0 0 0 0 0 0 0 0 0 0 0 0
0 0 0 0 0 0 0 0 0 0 0 0 0 0 0 0 0 0 0 0 0 0 0 0 0 0 0 0 0 0 0 0 0 0 0 0 0 0 0 0 0 0 0
0 0 0 0 0 0 0 0 0 0 0 0 0 0 0 0 0 0 0 0 0 0 0 0 0 0 0 0 0 0 0 0 0 0 0 0 0 0 0 0 0 0 0
0 0 0 0 0 0 0 0 0 0 0 0 0 0 0 0 0 0 0 0 0 0 0 0 0 0 0 0 0 0 0 0 0 0 0 0 0 0 0 0 0 0 0
0 0 0 0 0 0 0 0 0 0 0 0 0 0 0 0 0 0 0 0 0 0 0 0 0 0 0 0 0 0 0 0 0 0 0 0 0 0 0 0 0 0 0
0 0 0 0 0 0 0 0 0 0 0 0 0 0 0 0 0 0 0 0 0 0 0 0 0 0 0 0 0 0 0 0 0 0 0 0 0 0 0 0 0 0 0
0 0 0 0 0 0 0 0 0 0 0 0 0 0 0 0 0 0 0 0 0 0 0 0 0 0 0 0 0 0 0 0 0 0 0 0 0 0 0 -0 -0 0 0
0 0 0 0 0 0 0 0 0 0 0 0 0 0 0 0 0 0 0 0 0 0 0 0 0 0 0 0 0 0 0 0 0 0 0 0 0 -0 -0 -0 0 0 0
0 0 0 0 0 0 0 0 0 0 0 0 0 0 0 0 0 0 0 0 0 0 0 0 0 0 0 0 0 0 0 0 0 0 0 0 0 0 -0 -0 -0 -0 0
0 0 0 0 0 0 0 0 0 0 0 0 0 0 0 0 0 0 0 0 0 0 0 0 0 0 0 0 0 0 0 0 0 0 0 0 0 -0 -0 -0 -0 -0 0
0 0 0 0 0 0 0 0 0 0 0 0 0 0 0 0 0 0 0 0 0 0 0 0 0 0 0 0 0 0 0 0 0 0 0 0 -0 -0 -0 -0 -0 0 0
0 0 0 0 0 0 0 0 0 0 0 0 0 0 0 0 0 0 0 -0 0 0 0 0 0 0 0 0 0 0 0 0 0 0 0 -0 -0 -0 -0 -0 -0 0 0
0 0 0 0 0 0 0 0 0 0 0 0 0 0 0 0 0 0 0 0 0 0 0 0 0 0 0 0 0 0 0 0 0 0 -0 -0 -0 -0 -0 -0 0 0 0
0 0 0 0 0 0 0 0 0 0 0 0 0 0 0 0 0 0 0 0 0 0 0 0 0 0 0 0 0 0 0 0 0 0 -0 -0 -0 -0 -0 0 0 0 0
0 0 0 0 0 0 0 0 0 0 0 0 -0 -0 0 0 0 0 0 0 0 0 0 0 0 0 0 0 0 0 0 0 0 0 0 -0 -0 -0 0 0 0 0 0
0 0 0 0 0 0 0 0 0 0 0 0 0 0 0 0 0 0 0 0 0 0 0 0 0 0 0 0 0 0 0 0 0 0 0 0 0 0 0 0 0 0 0
0 0 0 0 0 0 -0 -0 -0 -0 -0 -0 0 0 0 0 -0 -0 0 0 0 0 0 0 0 0 0 0 0 -0 0 0 0 0 0 0 0 0 0 0 0 0 0
0 0 0 0 0 -0 -0 -0 -0 -0 -0 -0 0 0 0 0 0 0 0 0 0 0 0 0 0 -0 -0 -0 -0 0 0 0 0 0 0 0 0 0 0 0 0 0 0
0 0 -0 -0 -0 -0 -0 -0 -0 -0 0 0 0 0 0 0 0 0 0 0 0 0 0 -0 -0 -0 0 -0 -0 0 -0 0 0 0 0 0 0 0 0 0 0 0 0
-0 -0 0 0 0 0 0 -0 0 0 -0 0 0 0 0 0 0 0 0 0 0 0 0 -0 -0 -0 -0 -0 -0 -0 0 0 0 0 -0 0 0 0 0 0 0 0 0
-0 -0 -0 -0 -0 -0 -0 -0 -0 -0 -0 -0 -0 -0 -0 -0 -0 -0 0 0 0 0 0 0 -0 -0 -0 -0 -0 0 0 0 0 0 0 0 0 0 0 0 0 0 0
Wind_Speed_500mb
43 63 49 22 35 60 57 46 47 44 45 35 27 28 23 19 14 9 7 7 6 5 4 4 4 8 12 17 21 23 25 27 28 27 28 28 30 29 34 41 41 45 52
40 51 52 42 27 41 51 51 47 44 41 38 33 28 22 18 15 11 8 6 5 3 2 2 5 10 11 13 18 20 20 18 20 22 25 29 41 41 45 44 50 55 57
51 44 52 57 45 40 50 49 45 45 47 44 38 33 24 15 11 9 6 5 3 1 3 6 9 13 15 17 18 17 17 18 15 21 33 42 42 45 50 52 52 50 48
48 62 59 54 59 48 50 48 42 40 39 36 33 29 22 13 8 5 3 4 4 5 8 12 14 17 18 15 12 21 11 12 22 32 35 36 43 49 50 48 46 46 42
47 59 67 60 60 65 55 54 44 46 46 41 36 29 20 13 9 6 5 5 6 7 10 14 17 19 14 2 4 3 16 27 31 30 31 38 45 48 46 44 42 40 42
53 55 66 65 59 67 58 61 55 55 50 42 36 26 19 14 11 9 10 9 8 9 11 15 13 13 9 3 7 15 24 26 26 28 33 41 46 47 46 44 42 42 43
44 61 70 67 62 61 65 68 62 59 54 41 35 30 27 20 15 14 12 15 16 16 15 15 11 12 12 9 16 21 21 24 28 31 37 42 45 43 42 39 43 45 46
40 60 79 80 60 62 59 66 62 66 54 48 47 34 23 26 25 22 17 15 16 18 20 17 14 16 15 17 20 21 21 24 28 33 40 43 42 40 38 40 43 45 46
30 65 75 80 62 64 58 58 64 68 59 57 45 25 13 12 24 19 14 13 14 15 22 22 18 17 18 22 25 25 27 22 30 31 38 40 39 37 38 40 42 43 47
27 49 59 69 68 63 57 59 64 62 60 61 55 43 19 17 19 19 20 17 13 12 16 19 20 22 23 27 28 29 22 21 26 32 35 36 35 32 33 39 38 53 48
34 69 63 61 65 59 56 54 57 47 53 55 50 45 30 24 19 13 21 24 23 25 27 26 24 26 27 29 25 20 19 18 27 30 33 31 28 28 33 32 48 42 48
7 53 54 59 55 50 49 48 48 43 48 45 40 39 43 34 30 24 23 25 30 29 30 28 30 29 26 24 21 19 15 19 24 27 27 26 23 23 30 36 44 44 45
9 18 48 50 50 51 52 50 49 45 43 44 41 36 35 38 27 22 26 25 27 31 32 32 27 24 18 17 15 12 12 16 21 22 23 21 20 19 25 29 37 38 42
20 11 20 35 38 41 43 45 49 48 45 42 37 33 30 32 31 30 27 28 32 33 29 24 17 17 12 10 7 8 13 14 16 17 18 19 16 19 24 25 33 34 35
16 22 22 31 18 28 32 32 24 43 44 44 39 36 36 34 34 31 28 24 31 34 28 21 16 13 9 10 6 7 8 12 10 10 15 15 16 15 19 23 26 30 36
16 22 23 22 33 29 34 32 33 38 47 43 37 35 38 37 33 27 25 19 23 35 23 23 18 14 13 12 7 5 2 4 7 12 13 13 14 16 24 30 32 32 37
21 22 24 21 18 26 34 31 29 31 41 40 38 41 37 35 38 39 35 26 25 27 31 23 19 17 19 13 7 5 5 3 6 8 10 14 20 24 26 31 35 33 38
13 28 21 19 12 19 18 32 29 26 29 35 28 24 24 17 12 20 20 22 29 20 21 17 21 23 23 18 14 8 6 5 5 6 13 20 26 25 28 31 32 29 31
16 25 26 19 12 22 33 38 25 29 31 23 20 19 14 16 21 20 18 16 13 18 15 12 18 22 20 17 14 15 13 11 9 12 20 22 25 27 28 26 27 26 29
23 29 32 26 23 32 30 28 24 23 28 25 20 18 17 10 10 10 14 13 17 15 14 15 18 20 23 23 23 20 16 13 10 13 17 20 22 22 24 21 20 21 25
26 27 26 25 24 20 18 15 16 18 17 15 13 18 17 14 15 12 11 9 8 11 17 21 22 26 29 32 30 27 23 17 14 14 17 18 16 12 16 17 16 19 18
27 30 29 25 25 25 21 16 10 11 16 13 15 16 16 16 12 11 13 13 14 16 19 22 22 24 26 29 30 30 24 23 18 14 19 18 13 6 5 10 11 14 13
23 24 23 22 20 19 16 17 16 18 20 16 14 12 11 11 13 13 12 14 15 17 19 17 14 17 25 28 29 29 26 19 5 14 19 17 15 7 2 5 11 11 11
25 23 21 20 18 19 20 21 23 21 19 15 12 13 13 13 12 12 14 15 16 17 17 19 18 20 21 26 24 18 19 16 13 17 12 15 15 10 3 6 10 12 11
21 20 21 19 18 19 19 15 12 13 12 13 13 10 10 14 14 15 14 15 13 14 17 18 20 23 25 28 25 28 28 24 22 18 13 9 14 11 7 3 8 7 12
13 14 13 9 10 13 7 5 8 11 11 11 11 10 13 15 16 17 17 16 15 16 19 21 23 25 27 26 25 27 26 24 22 16 18 16 15 10 7 10 11 14 11
Wind_Direction_500mb
202 201 220 248 220 213 207 209 186 169 156 164 177 172 156 141 129 125 122 129 125 121 115 147 231 257 272 284 294 297 301 305 308 318 325 333 331 328 318 310 315 313 310
195 194 213 244 233 227 209 209 197 170 162 165 178 175 165 149 134 116 105 114 136 157 194 236 270 280 295 303 305 311 311 322 334 343 332 325 319 319 315 317 318 315 316
209 201 200 227 237 230 215 218 193 181 178 176 181 173 172 162 138 140 131 119 122 173 271 272 283 295 305 310 322 336 359 2 337 325 322 318 321 325 324 323 324 323 322
216 205 200 215 217 231 219 210 202 188 184 182 184 185 176 163 164 179 220 242 266 278 277 280 289 293 303 315 356 26 11 283 316 320 318 326 327 327 326 327 326 330 333
222 213 207 215 218 209 215 210 203 195 185 188 194 191 184 176 191 206 219 248 285 287 286 282 287 290 307 303 77 211 281 310 315 323 328 330 332 330 330 331 335 336 334
219 217 209 207 218 200 206 207 206 196 194 192 193 189 183 187 207 213 235 250 268 266 274 290 274 278 277 295 304 315 315 311 323 324 331 335 334 333 335 335 340 341 343
223 217 209 205 209 204 197 210 200 196 195 197 195 192 204 208 224 241 266 247 247 253 259 274 262 273 281 286 306 316 306 314 322 325 334 335 337 335 338 347 348 347 349
232 226 205 201 204 200 206 211 199 200 201 194 196 191 204 216 233 245 234 234 225 237 255 272 282 284 291 294 302 311 306 314 320 330 333 338 336 341 350 356 0 1 0
231 206 201 203 206 195 197 211 208 201 198 191 198 185 181 199 198 201 213 222 230 238 245 257 271 278 284 293 296 303 296 311 312 327 337 338 344 351 1 8 6 7 3
223 196 199 203 209 187 196 210 212 205 200 195 196 203 207 200 176 185 204 216 219 225 240 265 277 285 289 290 295 299 294 305 322 332 341 344 353 358 14 23 17 29 25
163 186 193 192 182 188 195 207 199 194 200 204 203 200 204 195 189 184 199 214 223 234 247 263 268 282 289 291 294 298 298 322 331 337 346 351 355 13 35 25 45 40 43
282 166 176 174 178 186 190 193 199 194 199 202 210 212 207 197 206 225 232 232 241 247 254 262 276 278 285 292 295 296 304 326 336 348 345 352 11 31 46 49 48 41 44
221 139 174 184 180 185 188 193 196 193 194 202 204 210 215 220 231 242 244 247 234 245 250 257 270 275 286 295 295 302 318 337 342 347 348 3 24 40 51 55 57 52 48
170 189 168 137 163 174 184 194 204 205 202 202 206 207 206 217 229 239 246 251 245 241 252 257 271 277 290 288 286 312 325 351 335 343 359 22 30 55 55 58 55 56 56
164 172 166 189 166 181 183 192 213 207 206 207 212 205 218 226 236 248 262 256 252 243 232 228 236 251 254 236 246 307 351 355 325 8 30 29 49 58 65 68 61 58 58
170 165 146 160 194 195 188 190 199 211 203 199 212 216 217 226 239 252 243 263 259 239 229 229 230 225 211 212 243 276 31 355 26 36 38 50 61 65 74 76 76 67 63
178 169 168 156 149 169 187 194 197 207 210 211 224 209 215 240 260 250 251 265 258 228 240 230 217 215 189 208 219 178 123 67 38 44 49 72 76 80 86 84 81 66 61
158 178 165 148 152 178 198 191 192 184 193 206 193 188 202 236 221 230 244 257 248 233 243 243 207 204 195 203 178 171 150 144 117 103 80 92 83 84 87 82 74 63 60
149 162 156 152 182 171 195 201 212 222 201 201 213 211 215 230 228 255 271 237 227 223 235 240 208 200 207 211 187 179 178 148 127 105 102 101 96 97 92 79 77 70 56
151 150 166 164 153 143 140 147 151 169 174 178 210 222 228 236 204 200 200 211 227 235 231 220 213 211 209 195 196 188 185 164 157 124 120 117 105 98 92 81 80 70 52
146 149 141 142 143 145 145 152 159 174 174 200 204 210 190 197 192 203 219 229 212 214 227 224 224 218 215 207 203 185 192 178 167 145 132 129 120 114 101 82 59 62 52
140 144 147 142 152 149 149 152 167 179 164 166 168 167 186 192 200 222 240 233 223 218 239 240 242 231 220 205 198 191 191 183 164 166 156 137 135 158 102 75 47 36 46
109 128 141 153 159 160 168 162 165 158 156 170 171 181 194 202 212 215 221 224 225 231 227 227 239 224 211 204 196 190 193 189 225 186 163 159 162 182 138 29 32 17 25
120 127 135 150 162 167 166 167 167 168 165 169 180 180 188 197 212 221 238 238 234 233 226 213 205 197 198 196 191 195 193 206 209 195 183 183 188 206 222 12 8 338 357
140 151 151 155 153 158 164 174 172 175 192 195 191 202 232 240 235 244 253 245 230 224 214 207 193 188 191 184 191 195 206 209 209 213 208 224 203 212 237 279 309 329 333
154 155 160 156 170 174 156 162 180 195 203 214 244 259 264 262 261 255 252 241 227 213 204 199 191 192 191 189 194 201 211 221 210 227 226 216 216 214 266 268 293 300 299
Wind_Speed_850mb
43 63 49 22 35 60 57 46 47 44 45 35 27 28 23 19 14 9 7 7 6 5 4 4 4 8 12 17 21 23 25 27 28 27 28 28 30 29 34 41 41 45 52
40 51 52 42 27 41 51 51 47 44 41 38 33 28 22 18 15 11 8 6 5 3 2 2 5 10 11 13 18 20 20 18 20 22 25 29 41 41 45 44 50 55 57
51 44 52 57 45 40 50 49 45 45 47 44 38 33 24 15 11 9 6 5 3 1 3 6 9 13 15 17 18 17 17 18 15 21 33 42 42 45 50 52 52 50 48
48 62 59 54 59 48 50 48 42 40 39 36 33 29 22 13 8 5 3 4 4 5 8 12 14 17 18 15 12 21 11 12 22 32 35 36 43 49 50 48 46 46 42
47 59 67 60 60 65 55 54 44 46 46 41 36 29 20 13 9 6 5 5 6 7 10 14 17 19 14 2 4 3 16 27 31 30 31 38 45 48 46 44 42 40 42
53 55 66 65 59 67 58 61 55 55 50 42 36 26 19 14 11 9 10 9 8 9 11 15 13 13 9 3 7 15 24 26 26 28 33 41 46 47 46 44 42 42 43
44 61 70 67 62 61 65 68 62 59 54 41 35 30 27 20 15 14 12 15 16 16 15 15 11 12 12 9 16 21 21 24 28 31 37 42 45 43 42 39 43 45 46
40 60 79 80 60 62 59 66 62 66 54 48 47 34 23 26 25 22 17 15 16 18 20 17 14 16 15 17 20 21 21 24 28 33 40 43 42 40 38 40 43 45 46
30 65 75 80 62 64 58 58 64 68 59 57 45 25 13 12 24 19 14 13 14 15 22 22 18 17 18 22 25 25 27 22 30 31 38 40 39 37 38 40 42 43 47
27 49 59 69 68 63 57 59 64 62 60 61 55 43 19 17 19 19 20 17 13 12 16 19 20 22 23 27 28 29 22 21 26 32 35 36 35 32 33 39 38 53 48
34 69 63 61 65 59 56 54 57 47 53 55 50 45 30 24 19 13 21 24 23 25 27 26 24 26 27 29 25 20 19 18 27 30 33 31 28 28 33 32 48 42 48
7 53 54 59 55 50 49 48 48 43 48 45 40 39 43 34 30 24 23 25 30 29 30 28 30 29 26 24 21 19 15 19 24 27 27 26 23 23 30 36 44 44 45
9 18 48 50 50 51 52 50 49 45 43 44 41 36 35 38 27 22 26 25 27 31 32 32 27 24 18 17 15 12 12 16 21 22 23 21 20 19 25 29 37 38 42
20 11 20 35 38 41 43 45 49 48 45 42 37 33 30 32 31 30 27 28 32 33 29 24 17 17 12 10 7 8 13 14 16 17 18 19 16 19 24 25 33 34 35
16 22 22 31 18 28 32 32 24 43 44 44 39 36 36 34 34 31 28 24 31 34 28 21 16 13 9 10 6 7 8 12 10 10 15 15 16 15 19 23 26 30 36
16 22 23 22 33 29 34 32 33 38 47 43 37 35 38 37 33 27 25 19 23 35 23 23 18 14 13 12 7 5 2 4 7 12 13 13 14 16 24 30 32 32 37
21 22 24 21 18 26 34 31 29 31 41 40 38 41 37 35 38 39 35 26 25 27 31 23 19 17 19 13 7 5 5 3 6 8 10 14 20 24 26 31 35 33 38
13 28 21 19 12 19 18 32 29 26 29 35 28 24 24 17 12 20 20 22 29 20 21 17 21 23 23 18 14 8 6 5 5 6 13 20 26 25 28 31 32 29 31
16 25 26 19 12 22 33 38 25 29 31 23 20 19 14 16 21 20 18 16 13 18 15 12 18 22 20 17 14 15 13 11 9 12 20 22 25 27 28 26 27 26 29
23 29 32 26 23 32 30 28 24 23 28 25 20 18 17 10 10 10 14 13 17 15 14 15 18 20 23 23 23 20 16 13 10 13 17 20 22 22 24 21 20 21 25
26 27 26 25 24 20 18 15 16 18 17 15 13 18 17 14 15 12 11 9 8 11 17 21 22 26 29 32 30 27 23 17 14 14 17 18 16 12 16 17 16 19 18
27 30 29 25 25 25 21 16 10 11 16 13 15 16 16 16 12 11 13 13 14 16 19 22 22 24 26 29 30 30 24 23 18 14 19 18 13 6 5 10 11 14 13
23 24 23 22 20 19 16 17 16 18 20 16 14 12 11 11 13 13 12 14 15 17 19 17 14 17 25 28 29 29 26 19 5 14 19 17 15 7 2 5 11 11 11
25 23 21 20 18 19 20 21 23 21 19 15 12 13 13 13 12 12 14 15 16 17 17 19 18 20 21 26 24 18 19 16 13 17 12 15 15 10 3 6 10 12 11
21 20 21 19 18 19 19 15 12 13 12 13 13 10 10 14 14 15 14 15 13 14 17 18 20 23 25 28 25 28 28 24 22 18 13 9 14 11 7 3 8 7 12
13 14 13 9 10 13 7 5 8 11 11 11 11 10 13 15 16 17 17 16 15 16 19 21 23 25 27 26 25 27 26 24 22 16 18 16 15 10 7 10 11 14 11
Wind_Direction_850mb
202 201 220 248 220 213 207 209 186 169 156 164 177 172 156 141 129 125 122 129 125 121 115 147 231 257 272 284 294 297 301 305 308 318 325 333 331 328 318 310 315 313 310
195 194 213 244 233 227 209 209 197 170 162 165 178 175 165 149 134 116 105 114 136 157 194 236 270 280 295 303 305 311 311 322 334 343 332 325 319 319 315 317 318 315 316
209 201 200 227 237 230 215 218 193 181 178 176 181 173 172 162 138 140 131 119 122 173 271 272 283 295 305 310 322 336 359 2 337 325 322 318 321 325 324 323 324 323 322
216 205 200 215 217 231 219 210 202 188 184 182 184 185 176 163 164 179 220 242 266 278 277 280 289 293 303 315 356 26 11 283 316 320 318 326 327 327 326 327 326 330 333
222 213 207 215 218 209 215 210 203 195 185 188 194 191 184 176 191 206 219 248 285 287 286 282 287 290 307 303 77 211 281 310 315 323 328 330 332 330 330 331 335 336 334
219 217 209 207 218 200 206 207 206 196 194 192 193 189 183 187 207 213 235 250 268 266 274 290 274 278 277 295 304 315 315 311 323 324 331 335 334 333 335 335 340 341 343
223 217 209 205 209 204 197 210 200 196 195 197 195 192 204 208 224 241 266 247 247 253 259 274 262 273 281 286 306 316 306 314 322 325 334 335 337 335 338 347 348 347 349
232 226 205 201 204 200 206 211 199 200 201 194 196 191 204 216 233 245 234 234 225 237 255 272 282 284 291 294 302 311 306 314 320 330 333 338 336 341 350 356 0 1 0
231 206 201 203 206 195 197 211 208 201 198 191 198 185 181 199 198 201 213 222 230 238 245 257 271 278 284 293 296 303 296 311 312 327 337 338 344 351 1 8 6 7 3
223 196 199 203 209 187 196 210 212 205 200 195 196 203 207 200 176 185 204 216 219 225 240 265 277 285 289 290 295 299 294 305 322 332 341 344 353 358 14 23 17 29 25
163 186 193 192 182 188 195 207 199 194 200 204 203 200 204 195 189 184 199 214 223 234 247 263 268 282 289 291 294 298 298 322 331 337 346 351 355 13 35 25 45 40 43
282 166 176 174 178 186 190 193 199 194 199 202 210 212 207 197 206 225 232 232 241 247 254 262 276 278 285 292 295 296 304 326 336 348 345 352 11 31 46 49 48 41 44
221 139 174 184 180 185 188 193 196 193 194 202 204 210 215 220 231 242 244 247 234 245 250 257 270 275 286 295 295 302 318 337 342 347 348 3 24 40 51 55 57 52 48
170 189 168 137 163 174 184 194 204 205 202 202 206 207 206 217 229 239 246 251 245 241 252 257 271 277 290 288 286 312 325 351 335 343 359 22 30 55 55 58 55 56 56
164 172 166 189 166 181 183 192 213 207 206 207 212 205 218 226 236 248 262 256 252 243 232 228 236 251 254 236 246 307 351 355 325 8 30 29 49 58 65 68 61 58 58
170 165 146 160 194 195 188 190 199 211 203 199 212 216 217 226 239 252 243 263 259 239 229 229 230 225 211 212 243 276 31 355 26 36 38 50 61 65 74 76 76 67 63
178 169 168 156 149 169 187 194 197 207 210 211 224 209 215 240 260 250 251 265 258 228 240 230 217 215 189 208 219 178 123 67 38 44 49 72 76 80 86 84 81 66 61
158 178 165 148 152 178 198 191 192 184 193 206 193 188 202 236 221 230 244 257 248 233 243 243 207 204 195 203 178 171 150 144 117 103 80 92 83 84 87 82 74 63 60
149 162 156 152 182 171 195 201 212 222 201 201 213 211 215 230 228 255 271 237 227 223 235 240 208 200 207 211 187 179 178 148 127 105 102 101 96 97 92 79 77 70 56
151 150 166 164 153 143 140 147 151 169 174 178 210 222 228 236 204 200 200 211 227 235 231 220 213 211 209 195 196 188 185 164 157 124 120 117 105 98 92 81 80 70 52
146 149 141 142 143 145 145 152 159 174 174 200 204 210 190 197 192 203 219 229 212 214 227 224 224 218 215 207 203 185 192 178 167 145 132 129 120 114 101 82 59 62 52
140 144 147 142 152 149 149 152 167 179 164 166 168 167 186 192 200 222 240 233 223 218 239 240 242 231 220 205 198 191 191 183 164 166 156 137 135 158 102 75 47 36 46
109 128 141 153 159 160 168 162 165 158 156 170 171 181 194 202 212 215 221 224 225 231 227 227 239 224 211 204 196 190 193 189 225 186 163 159 162 182 138 29 32 17 25
120 127 135 150 162 167 166 167 167 168 165 169 180 180 188 197 212 221 238 238 234 233 226 213 205 197 198 196 191 195 193 206 209 195 183 183 188 206 222 12 8 338 357
140 151 151 155 153 158 164 174 172 175 192 195 191 202 232 240 235 244 253 245 230 224 214 207 193 188 191 184 191 195 206 209 209 213 208 224 203 212 237 279 309 329 333
154 155 160 156 170 174 156 162 180 195 203 214 244 259 264 262 261 255 252 241 227 213 204 199 191 192 191 189 194 201 211 221 210 227 226 216 216 214 266 268 293 300 299